Location: Treviso
(45.6669°N, 12.2430°E)
Time: 08:18:05
(UTC+02:00)

ISS - Pass Details

Date: 25 May 2018
Orbit: 402 x 407 km, 51.6° (Epoch: 26 May)

Event Time Altitude Azimuth Distance (km) Brightness Sun altitude
Rises 23:35:53 0° 287° (WNW) 2,320 0.6 -20.1°
Reaches altitude 10° 23:38:10 10° 300° (WNW) 1,460 -0.3 -20.2°
Maximum altitude 23:41:01 27° 1° (N) 812 -1.7 -20.4°
Drops below altitude 10° 23:43:53 10° 62° (ENE) 1,458 -0.9 -20.6°
Enters shadow 23:44:38 - 68° (ENE) 1,732 -0.6 -20.6°
